Location: Drouwen
(52.9559°N, 6.7974°E)
Time: 11:30:24
(UTC+00:00)

ATLAS 2AS CENTAUR R/B - Pass Details

Date: 15 May 2026
Orbit: 1053 x 1158 km, 63.7° (Epoch: 9 June)

Event Time Altitude Azimuth Distance (km) Brightness Sun altitude
Rises 20:50:01 0° 274° (W) 3,873 6.3 -10.2°
Reaches altitude 10° 20:52:57 10° 283° (WNW) 2,905 5.8 -10.5°
Maximum altitude 20:59:11 36° 349° (N) 1,626 4.3 -11.0°
Drops below altitude 10° 21:05:22 10° 55° (NE) 2,878 5.0 -11.6°
Sets 21:08:16 0° 64° (ENE) 3,833 5.5 -11.8°
